�������l�o���
Date,Time,MP-1(��Sv/h),MP-2(��Sv/h),MP-3(��Sv/h),MP-4(��Sv/h),MP-5(��Sv/h),MP-6(��Sv/h),MP-7(��Sv/h),MP-8(��Sv/h),����,����(m/s),���J
2018/07/10,00:00,0.864,1.236,0.857,1.538,1.082,0.475,0.825,0.782,��쐼,2.0,��
2018/07/10,00:10,0.864,1.237,0.857,1.537,1.084,0.475,0.826,0.783,��,0.9,��
2018/07/10,00:20,0.863,1.235,0.858,1.539,1.080,0.475,0.824,0.782,��쐼,1.4,��
2018/07/10,00:30,0.862,1.237,0.855,1.538,1.080,0.475,0.823,0.783,�쐼,1.7,��
2018/07/10,00:40,0.862,1.235,0.859,1.539,1.083,0.474,0.825,0.782,��쐼,2.0,��
2018/07/10,00:50,0.861,1.238,0.858,1.536,1.082,0.474,0.825,0.784,��쐼,1.1,��
2018/07/10,01:00,0.861,1.235,0.859,1.539,1.083,0.475,0.825,0.784,-,CALM,��
2018/07/10,01:10,0.862,1.236,0.859,1.537,1.083,0.475,0.824,0.783,��쐼,0.6,��
2018/07/10,01:20,0.863,1.237,0.859,1.537,1.081,0.475,0.825,0.785,��,1.7,��
2018/07/10,01:30,0.862,1.234,0.857,1.539,1.081,0.476,0.823,0.784,��,2.2,��
2018/07/10,01:40,0.860,1.234,0.857,1.540,1.083,0.474,0.824,0.783,��,2.2,��
2018/07/10,01:50,0.861,1.235,0.858,1.536,1.083,0.474,0.825,0.785,��쓌,2.6,��
2018/07/10,02:00,0.862,1.236,0.859,1.538,1.082,0.474,0.825,0.782,��쓌,2.5,��
2018/07/10,02:10,0.861,1.237,0.857,1.536,1.081,0.474,0.825,0.783,��쓌,2.6,��
2018/07/10,02:20,0.860,1.233,0.857,1.538,1.080,0.476,0.825,0.782,��,3.0,��
2018/07/10,02:30,0.861,1.235,0.859,1.538,1.081,0.475,0.824,0.784,��,3.2,��
2018/07/10,02:40,0.860,1.234,0.858,1.540,1.082,0.473,0.824,0.782,��쐼,2.9,��
2018/07/10,02:50,0.862,1.235,0.857,1.540,1.082,0.474,0.825,0.782,��쐼,2.3,��
2018/07/10,03:00,0.860,1.235,0.859,1.537,1.082,0.474,0.825,0.784,��쐼,2.3,��
2018/07/10,03:10,0.860,1.233,0.857,1.537,1.083,0.476,0.824,0.784,��쐼,2.6,��
2018/07/10,03:20,0.862,1.235,0.858,1.539,1.084,0.474,0.825,0.782,�쐼,2.9,��
2018/07/10,03:30,0.859,1.234,0.857,1.537,1.083,0.476,0.825,0.784,�쐼,1.9,��
2018/07/10,03:40,0.859,1.237,0.858,1.540,1.084,0.474,0.822,0.783,�쐼,2.3,��
2018/07/10,03:50,0.861,1.234,0.857,1.541,1.083,0.475,0.824,0.784,���쐼,1.7,��
2018/07/10,04:00,0.860,1.235,0.857,1.540,1.082,0.475,0.825,0.783,���쐼,1.7,��
2018/07/10,04:10,0.859,1.233,0.858,1.537,1.086,0.475,0.825,0.784,���k��,0.8,��
2018/07/10,04:20,0.859,1.237,0.859,1.538,1.084,0.473,0.824,0.783,�k�k��,0.9,��
2018/07/10,04:30,0.859,1.235,0.856,1.539,1.082,0.474,0.824,0.783,�k��,1.2,��
2018/07/10,04:40,0.862,1.235,0.858,1.537,1.082,0.476,0.824,0.785,�k��,1.1,��
2018/07/10,04:50,0.860,1.235,0.856,1.536,1.082,0.473,0.824,0.782,�k��,1.5,��
2018/07/10,05:00,0.861,1.233,0.857,1.539,1.082,0.473,0.824,0.784,�k,1.5,��
2018/07/10,05:10,0.858,1.232,0.858,1.538,1.081,0.473,0.824,0.782,�k,1.1,��
2018/07/10,05:20,0.860,1.233,0.858,1.537,1.082,0.474,0.824,0.785,�k,1.2,��
2018/07/10,05:30,0.859,1.235,0.856,1.538,1.081,0.473,0.825,0.783,�k,0.8,��
2018/07/10,05:40,0.859,1.234,0.856,1.536,1.080,0.474,0.825,0.783,�k,0.8,��
2018/07/10,05:50,0.860,1.234,0.858,1.536,1.083,0.474,0.826,0.783,-,CALM,��
2018/07/10,06:00,0.858,1.233,0.857,1.537,1.081,0.472,0.824,0.783,�쓌,0.8,��
2018/07/10,06:10,0.861,1.236,0.858,1.538,1.081,0.473,0.824,0.784,�쓌,1.1,��
2018/07/10,06:20,0.859,1.235,0.856,1.539,1.083,0.473,0.825,0.784,�쓌,1.1,��
2018/07/10,06:30,0.858,1.237,0.857,1.536,1.080,0.473,0.825,0.784,��쓌,2.2,��
2018/07/10,06:40,0.859,1.236,0.856,1.536,1.081,0.474,0.825,0.783,��쓌,2.6,��
2018/07/10,06:50,0.860,1.234,0.856,1.542,1.080,0.472,0.824,0.782,��,2.3,��
2018/07/10,07:00,0.858,1.229,0.857,1.539,1.082,0.473,0.825,0.781,��,2.2,��
2018/07/10,07:10,0.857,1.233,0.856,1.539,1.083,0.473,0.826,0.783,��,2.3,��
2018/07/10,07:20,0.860,1.232,0.856,1.539,1.083,0.475,0.823,0.782,��쓌,2.9,��
2018/07/10,07:30,0.860,1.232,0.858,1.539,1.080,0.472,0.823,0.780,��쓌,2.0,��
2018/07/10,07:40,0.857,1.232,0.855,1.536,1.082,0.473,0.824,0.780,�쓌,2.5,��
2018/07/10,07:50,0.858,1.232,0.854,1.536,1.080,0.472,0.822,0.780,��쓌,2.6,��
2018/07/10,08:00,0.859,1.232,0.856,1.537,1.081,0.471,0.823,0.781,��쓌,4.1,��
2018/07/10,08:10,0.859,1.233,0.856,1.540,1.081,0.474,0.823,0.780,�쓌,1.9,��
2018/07/10,08:20,0.859,1.233,0.855,1.539,1.080,0.472,0.824,0.781,�쓌,2.3,��
2018/07/10,08:30,0.859,1.235,0.855,1.539,1.081,0.475,0.823,0.781,�쓌,1.7,��
2018/07/10,08:40,0.859,1.233,0.852,1.541,1.080,0.472,0.822,0.781,���쓌,1.4,��
2018/07/10,08:50,0.859,1.235,0.855,1.541,1.082,0.473,0.825,0.783,��,1.4,��
2018/07/10,09:00,0.861,1.237,0.854,1.539,1.085,0.475,0.823,0.782,���k��,1.9,��
2018/07/10,09:10,0.862,1.236,0.856,1.539,1.082,0.474,0.824,0.781,��,0.6,��
2018/07/10,09:20,0.862,1.234,0.856,1.540,1.082,0.474,0.824,0.781,��쓌,1.7,��
2018/07/10,09:30,0.862,1.236,0.856,1.542,1.085,0.475,0.825,0.782,��쓌,1.7,��
2018/07/10,09:40,0.862,1.240,0.856,1.541,1.083,0.474,0.823,0.781,�쓌,2.0,��
2018/07/10,09:50,0.862,1.237,0.860,1.541,1.086,0.474,0.825,0.782,��,2.9,��
2018/07/10,10:00,0.863,1.239,0.857,1.542,1.085,0.476,0.824,0.782,��,4.1,��
2018/07/10,10:10,0.863,1.241,0.858,1.543,1.084,0.475,0.825,0.782,��,4.4,��
2018/07/10,10:20,0.861,1.238,0.858,1.544,1.085,0.476,0.826,0.781,��,5.8,��
2018/07/10,10:30,0.864,1.241,0.858,1.541,1.084,0.473,0.825,0.782,��,4.7,��
2018/07/10,10:40,0.862,1.238,0.856,1.544,1.085,0.476,0.826,0.781,��,5.6,��
2018/07/10,10:50,0.864,1.244,0.858,1.543,1.084,0.477,0.827,0.781,��,6.6,��
2018/07/10,11:00,0.865,1.239,0.859,1.543,1.088,0.476,0.825,0.782,��,6.5,��
2018/07/10,11:10,0.866,1.238,0.858,1.541,1.082,0.477,0.826,0.782,��,5.3,��
2018/07/10,11:20,0.864,1.240,0.858,1.540,1.086,0.477,0.826,0.781,��쓌,5.3,��
2018/07/10,11:30,0.864,1.244,0.860,1.539,1.089,0.476,0.827,0.784,��쓌,6.5,��
2018/07/10,11:40,0.865,1.243,0.859,1.541,1.086,0.476,0.826,0.782,��,7.5,��
2018/07/10,11:50,0.866,1.242,0.860,1.541,1.091,0.476,0.827,0.782,��쓌,8.4,��
2018/07/10,12:00,0.864,1.243,0.860,1.541,1.092,0.478,0.825,0.783,��,8.4,��
2018/07/10,12:10,0.865,1.245,0.860,1.543,1.090,0.477,0.828,0.784,��쓌,9.3,��
2018/07/10,12:20,0.865,1.244,0.860,1.543,1.091,0.477,0.827,0.782,��,8.0,��
2018/07/10,12:30,0.866,1.246,0.861,1.545,1.091,0.478,0.826,0.784,��,8.9,��
2018/07/10,12:40,0.865,1.245,0.860,1.542,1.090,0.476,0.827,0.783,��,8.5,��
2018/07/10,12:50,0.867,1.244,0.860,1.541,1.091,0.478,0.827,0.783,��,5.7,��
2018/07/10,13:00,0.864,1.243,0.862,1.543,1.091,0.478,0.828,0.783,��,7.6,��
2018/07/10,13:10,0.865,1.240,0.861,1.543,1.093,0.473,0.827,0.782,��,6.9,��
2018/07/10,13:20,0.865,1.244,0.864,1.541,1.093,0.476,0.827,0.784,��,5.9,��
2018/07/10,13:30,0.866,1.243,0.861,1.543,1.092,0.476,0.828,0.784,��,6.5,��
2018/07/10,13:40,0.867,1.246,0.861,1.546,1.090,0.477,0.827,0.782,��,6.0,��
2018/07/10,13:50,0.868,1.246,0.862,1.545,1.089,0.477,0.827,0.783,��,5.6,��
2018/07/10,14:00,0.867,1.243,0.864,1.544,1.090,0.475,0.828,0.783,��,5.1,��
2018/07/10,14:10,0.867,1.244,0.863,1.544,1.091,0.477,0.828,0.784,��,4.7,��
2018/07/10,14:20,0.867,1.247,0.864,1.541,1.091,0.477,0.829,0.784,��,6.6,��
2018/07/10,14:30,0.867,1.246,0.864,1.544,1.092,0.477,0.830,0.784,��,6.0,��
2018/07/10,14:40,0.870,1.248,0.863,1.546,1.093,0.477,0.828,0.785,��,7.6,��
2018/07/10,14:50,0.869,1.247,0.865,1.544,1.093,0.479,0.829,0.784,��,7.1,��
2018/07/10,15:00,0.869,1.249,0.862,1.547,1.093,0.478,0.828,0.783,��,6.2,��
2018/07/10,15:10,0.871,1.248,0.864,1.546,1.093,0.478,0.827,0.785,��,7.2,��
2018/07/10,15:20,0.870,1.248,0.865,1.546,1.092,0.479,0.828,0.784,��쓌,7.8,��
2018/07/10,15:30,0.871,1.249,0.864,1.545,1.095,0.477,0.829,0.785,��,7.3,��
2018/07/10,15:40,0.871,1.251,0.864,1.546,1.094,0.478,0.829,0.785,��,7.1,��
2018/07/10,15:50,0.870,1.252,0.866,1.543,1.094,0.477,0.830,0.787,��,7.7,��
2018/07/10,16:00,0.871,1.251,0.866,1.547,1.096,0.479,0.828,0.786,��,7.5,��
2018/07/10,16:10,0.871,1.252,0.863,1.548,1.098,0.479,0.828,0.784,��,7.7,��
2018/07/10,16:20,0.871,1.253,0.865,1.548,1.098,0.478,0.829,0.788,��,8.3,��
2018/07/10,16:30,0.872,1.253,0.865,1.547,1.097,0.477,0.830,0.784,��,6.7,��
2018/07/10,16:40,0.870,1.251,0.864,1.546,1.096,0.476,0.830,0.785,��,7.1,��
2018/07/10,16:50,0.869,1.252,0.863,1.549,1.096,0.476,0.830,0.786,��,6.4,��
2018/07/10,17:00,0.871,1.250,0.865,1.548,1.096,0.478,0.829,0.784,��,5.9,��
2018/07/10,17:10,0.869,1.252,0.864,1.546,1.098,0.477,0.830,0.785,��,6.5,��
2018/07/10,17:20,0.872,1.253,0.865,1.547,1.096,0.476,0.829,0.785,��,6.5,��
2018/07/10,17:30,0.872,1.254,0.866,1.548,1.094,0.478,0.829,0.783,��,4.8,��
2018/07/10,17:40,0.872,1.252,0.865,1.551,1.095,0.480,0.829,0.785,��,5.6,��
2018/07/10,17:50,0.871,1.252,0.864,1.551,1.094,0.477,0.828,0.786,��쐼,5.9,��
2018/07/10,18:00,0.872,1.252,0.864,1.548,1.096,0.477,0.830,0.787,��쐼,6.7,��
2018/07/10,18:10,0.875,1.248,0.866,1.550,1.097,0.479,0.829,0.786,��쐼,6.6,��
2018/07/10,18:20,0.873,1.255,0.867,1.548,1.097,0.478,0.830,0.788,��쐼,5.9,��
2018/07/10,18:30,0.873,1.253,0.866,1.548,1.095,0.478,0.830,0.786,��쐼,5.3,��
2018/07/10,18:40,0.872,1.251,0.868,1.550,1.097,0.478,0.830,0.787,��쐼,5.0,��
2018/07/10,18:50,0.872,1.255,0.867,1.550,1.097,0.478,0.829,0.787,��쐼,4.7,��
2018/07/10,19:00,0.874,1.252,0.867,1.552,1.096,0.478,0.829,0.787,��쐼,4.9,��
2018/07/10,19:10,0.870,1.254,0.869,1.551,1.098,0.479,0.830,0.785,��쐼,4.4,�L
2018/07/10,19:20,0.873,1.254,0.866,1.552,1.094,0.480,0.829,0.786,��쐼,3.8,�L
2018/07/10,19:30,0.874,1.253,0.867,1.548,1.096,0.479,0.828,0.788,�쐼,2.8,��
2018/07/10,19:40,0.872,1.253,0.866,1.552,1.095,0.479,0.829,0.787,��,1.7,��
2018/07/10,19:50,0.872,1.254,0.869,1.552,1.097,0.480,0.830,0.786,���쐼,1.2,��
2018/07/10,20:00,0.872,1.254,0.868,1.552,1.096,0.479,0.829,0.787,�쐼,1.1,��
2018/07/10,20:10,0.873,1.251,0.868,1.550,1.097,0.478,0.829,0.785,�쐼,1.5,��
2018/07/10,20:20,0.873,1.252,0.867,1.549,1.097,0.479,0.829,0.786,���쐼,0.9,��
2018/07/10,20:30,0.875,1.254,0.867,1.552,1.096,0.479,0.828,0.785,��쐼,1.7,��
2018/07/10,20:40,0.873,1.253,0.867,1.551,1.097,0.480,0.830,0.787,��쐼,2.0,��
2018/07/10,20:50,0.873,1.254,0.868,1.552,1.097,0.479,0.829,0.787,�쐼,2.0,��
2018/07/10,21:00,0.873,1.252,0.868,1.553,1.096,0.480,0.830,0.787,��쐼,1.9,��
2018/07/10,21:10,0.872,1.255,0.869,1.553,1.093,0.479,0.830,0.786,��쐼,2.2,��
2018/07/10,21:20,0.874,1.252,0.871,1.552,1.096,0.479,0.830,0.788,�쐼,2.2,��
2018/07/10,21:30,0.873,1.251,0.869,1.552,1.096,0.480,0.828,0.786,�쐼,2.6,��
2018/07/10,21:40,0.872,1.251,0.868,1.553,1.094,0.481,0.830,0.787,��쐼,2.8,��
2018/07/10,21:50,0.873,1.250,0.868,1.552,1.095,0.478,0.829,0.788,��쐼,1.2,��
2018/07/10,22:00,0.874,1.249,0.869,1.553,1.095,0.480,0.829,0.787,��,1.5,��
2018/07/10,22:10,0.873,1.252,0.865,1.553,1.097,0.480,0.829,0.788,��쐼,2.6,��
2018/07/10,22:20,0.870,1.255,0.871,1.552,1.095,0.478,0.830,0.786,��쐼,3.2,��
2018/07/10,22:30,0.873,1.253,0.868,1.551,1.096,0.478,0.829,0.787,�쐼,2.8,��
2018/07/10,22:40,0.873,1.251,0.869,1.552,1.097,0.479,0.829,0.787,�쐼,2.3,��
2018/07/10,22:50,0.871,1.253,0.867,1.553,1.094,0.480,0.832,0.785,���쐼,1.7,��
2018/07/10,23:00,0.874,1.251,0.869,1.552,1.096,0.478,0.830,0.789,���쐼,1.2,��
2018/07/10,23:10,0.871,1.251,0.868,1.553,1.096,0.478,0.829,0.788,�쐼,0.9,��
2018/07/10,23:20,0.874,1.251,0.868,1.549,1.097,0.479,0.829,0.788,�쐼,1.2,��
2018/07/10,23:30,0.872,1.252,0.867,1.554,1.095,0.478,0.829,0.787,�쐼,1.4,��
2018/07/10,23:40,0.872,1.251,0.866,1.551,1.097,0.480,0.829,0.787,���쐼,0.9,��
2018/07/10,23:50,0.872,1.251,0.868,1.550,1.095,0.477,0.831,0.788,-,CALM,��
